Location: Mascot Post Office (historical)
(40.2645°N, 99.5462°W)
Time: 00:56:56
(UTC+00:00)

Daily predictions for brighter satellites

Satellite Brightness Start Highest point End
(mag) Time Altitude Azimuth Time Altitude Azimuth Time Altitude Azimuth
BREEZE M DEB (TANK) 4.2 02:27:51 10° S 02:31:01 25° ESE 02:38:23 10° ENE
Cosmos 1745 Rocket 4.2 02:29:40 10° S 02:35:54 84° W 02:42:14 10° N
CZ-2C R/B 3.9 02:32:24 10° NNE 02:37:07 57° E 02:41:46 10° S
MetOp-A 4.2 02:32:12 10° SSE 02:37:32 74° ENE 02:42:53 10° N
MOS 1 4.5 02:32:33 10° SSE 02:38:13 81° WSW 02:43:53 10° NNW
Cosmos 1315 Rocket 4.3 02:34:55 10° NNE 02:38:16 23° ENE 02:41:36 10° SE
MOS 1 Rocket 4.2 02:35:18 10° N 02:40:15 61° WNW 02:45:25 10° SSW
SL-08 RB Rocket 4.2 02:38:17 10° S 02:42:42 61° W 02:47:11 10° NNW
Cosmos 1758 Rocket 3.9 02:40:00 10° SSW 02:44:28 74° W 02:48:58 10° N
Cosmos 1980 4.2 02:43:33 10° S 02:48:45 39° ESE 02:53:58 10° NE
Cosmos 44 4.2 02:45:43 10° SSE 02:48:58 21° ESE 02:52:17 10° ENE
ISS -1.9 02:47:50 10° SSE 02:49:19 12° SE 02:50:48 10° ESE
DELTA 2 R/B (1) 3.6 02:44:17 10° W 02:49:51 83° S 02:55:27 10° E
Cosmos 1400 Rocket 2.8 02:46:26 10° N 02:50:22 85° W 02:54:13 10° S
ARGOS 4.4 02:45:25 10° S 02:50:32 43° W 02:55:42 10° NNW
Cosmos 1680 Rocket 4.4 02:46:30 10° SSE 02:50:59 29° E 02:55:29 10° NE
Atlas Centaur 2 3.9 02:50:56 10° SW 02:52:55 12° SSW 02:55:04 10° S
CZ-2C R/B 2.9 02:48:37 10° N 02:53:56 76° WNW 02:59:07 10° SSW
Meteor 1-11 4.3 02:48:29 10° S 02:54:04 68° E 02:59:46 10° NNE
Cosmos 2219 Rocket 2.7 02:49:05 10° SSW 02:54:37 66° WNW 03:00:13 10° NNE
EP 3 4.3 02:53:12 10° S 02:55:18 34° ESE 02:57:12 10° NE
Cosmos 2181 Rocket 4.4 02:49:43 10° N 02:55:44 47° ENE 03:01:38 10° SSE
Cosmos 1703 4.2 02:53:02 10° SSW 02:56:48 51° W 03:00:37 10° N
Gblst 52 Del rocket 4.3 02:58:05 10° NW 03:03:43 86° NE 03:09:13 13° SE
ATLAS CENTAUR R/B 1.8 03:01:15 10° NW 03:04:47 48° WSW 03:08:19 10° SSE
Cosmos 2237 Rocket 2.4 02:59:23 10° S 03:04:52 51° ESE 03:10:23 10° NNE
Cosmos 158 Rocket 4.5 03:02:20 10° SSE 03:06:42 35° E 03:11:08 10° NE
Cosmos 1953 Rocket 3.7 03:04:38 10° SSW 03:08:56 75° W 03:13:17 10° N
NOSS 3-4 (A) 4.5 03:02:47 10° NNW 03:09:31 46° NE 03:16:05 13° ESE
NOSS 3-4 (C) 4.5 03:02:54 10° NNW 03:09:38 46° NE 03:16:12 13° ESE
Gbstr 26 Del rocket 2.6 03:07:38 10° SW 03:11:27 56° SE 03:15:07 10° ENE
Cosmos 923 Rocket 4.1 03:06:24 10° S 03:11:32 59° ESE 03:16:44 10° NNE
Resurs 01 Rocket 1.6 03:09:00 10° SSE 03:13:24 83° ENE 03:17:49 10° N
COSMOS 2428 3.7 03:08:33 10° SW 03:14:03 52° WNW 03:19:37 10° NNE
ERS-1 Rocket 4.3 03:16:29 14° ESE 03:19:38 25° ENE 03:23:41 10° NNE
Cosmos 1709 Rocket 4.4 03:13:40 10° SSW 03:19:57 69° W 03:26:20 10° N
USA 81 4.0 03:15:20 10° S 03:20:34 72° E 03:25:50 10° N
Cosmos 1842 Rocket 4.0 03:17:22 10° N 03:21:30 42° ENE 03:24:16 19° SE
Hubble Space Telescope 2.6 03:20:02 10° SW 03:22:26 15° S 03:23:26 14° SSE
TSX-5 4.1 03:20:40 10° NNW 03:24:32 63° ENE 03:27:53 19° SE
Cosmos 2344 3.7 03:18:35 10° S 03:25:52 49° ESE 03:33:10 10° NE
Cosmos 1825 4.3 03:26:00 12° E 03:26:09 12° E 03:27:32 10° ENE
Cosmos-2242 4.5 03:23:22 10° NNW 03:27:24 37° W 03:31:26 10° SSW
SPOT 1/Viking Rocket 4.1 03:26:27 18° SE 03:29:54 44° ENE 03:34:49 10° N
Cosmos 1408 4.1 03:30:37 19° E 03:31:04 19° E 03:33:40 10° NE
BREEZE-M DEB (TANK) 3.8 03:22:43 10° WNW 03:32:08 48° NNE 03:34:51 14° E
Cosmos 2221 2.9 03:28:54 10° N 03:33:07 48° E 03:35:30 23° SE
Cosmos 1869 3.6 03:31:32 10° N 03:35:29 50° E 03:37:34 25° SE
ATLAS 2AS CENTAUR R/B 3.1 03:29:34 10° NNW 03:37:02 61° NE 03:41:54 20° SE
USA 245 3.6 03:35:10 23° SSE 03:37:36 66° ENE 03:42:30 10° N
Cosmos 2333 Rocket 4.4 03:33:49 10° WSW 03:38:43 29° NW 03:43:39 10° N
Meteor 2-2 Rocket 4.3 03:35:42 10° N 03:41:22 61° ENE 03:44:59 22° SSE
NOSS 0 Rocket 4.4 03:37:52 10° SW 03:43:56 62° WNW 03:50:05 10° NNE
SPOT 5 3.7 03:41:55 22° ESE 03:44:11 34° ENE 03:48:20 10° N
USA 215 4.1 03:39:25 10° ENE 03:44:34 24° ESE 03:46:25 21° SSE
Cosmos 2278 Rocket 2.2 03:39:25 10° NNW 03:45:07 84° WSW 03:48:54 22° SSE
Cosmos 2184 Rocket 4.0 03:42:15 11° S 03:48:11 75° E 03:54:31 10° N
IRIS 4.2 03:46:33 10° W 03:50:06 50° SSW 03:50:30 45° S
TIMED 4.5 03:47:38 17° S 03:50:54 65° ESE 03:55:14 10° NNE
SAR-Lupe-2 3.6 03:48:22 10° NNE 03:51:56 59° ESE 03:53:17 34° SSE
MetOp-B 4.4 03:48:20 17° S 03:52:34 68° WSW 03:57:55 10° NNW
BREEZE-M DEB (TANK) 4.0 03:49:38 10° WNW 03:52:50 36° SW 03:54:42 24° S
SL-16 R/B 2.4 03:51:42 20° S 03:55:25 47° ESE 04:00:52 10° NE
GEOS 3 Rocket 4.1 03:50:43 10° NE 03:55:47 40° ESE 03:58:53 21° S
In-Cosmos 22 Rocket 4.0 03:52:30 15° S 03:56:56 82° E 04:02:18 10° N
Terra 2.7 03:56:54 26° ESE 03:58:40 34° ENE 04:02:57 10° N
IGS 5A 3.5 03:56:29 26° S 03:58:43 74° WSW 04:02:53 10° NNW
Cosmos 1076 Rocket 3.4 03:56:51 29° S 03:58:53 66° E 04:03:06 10° NNE
Cosmos 1371 Rocket 4.2 03:56:13 10° NNW 04:01:28 59° ENE 04:03:51 31° SE
Spot 2 Rocket 3.7 03:59:36 22° S 04:02:54 70° WSW 04:08:01 10° NNW
BREEZE-M (TANK) 3.8 04:02:44 10° SW 04:06:33 81° SE 04:21:44 10° ENE
Cosmos 2112 Rocket 4.3 04:01:48 10° SSW 04:07:07 68° WNW 04:12:28 10° NNE
Cosmos 2058 3.0 04:09:54 25° SSW 04:12:11 72° W 04:16:19 10° N
Iridium 2 4.1 04:20:13 10° N 04:23:54 45° E 04:23:56 45° E
Cosmos 2056 Rocket 3.5 04:19:04 10° NNW 04:24:32 82° ENE 04:26:29 41° SSE
Nadezhda 3 Rocket 4.0 04:18:45 10° N 04:25:07 80° E 04:27:59 35° SSE
ISS -3.6 04:22:19 10° WSW 04:25:40 71° NW 04:29:01 10° NE
Cosmos 2154 Rocket 4.0 04:25:34 23° S 04:29:36 81° W 04:35:52 10° N
Cosmos 2369 Rocket 3.8 04:26:24 10° N 04:30:47 23° NE 04:33:06 18° E
Cosmos 1892 4.1 04:31:28 19° SW 04:33:34 34° WNW 04:37:05 10° N
SL-8 Rocket 4.4 04:32:32 37° SE 04:34:06 43° E 04:39:52 10° NNE
Cosmos 1151 Rocket 4.2 04:30:32 10° NNE 04:34:14 27° ENE 04:34:16 27° ENE
Aureole 2 Rocket 2.7 04:33:05 10° NNW 04:35:32 56° NNW 04:35:32 56° NNW
DELTA 2 R/B (1) 3.5 04:30:43 10° W 04:36:16 70° SSW 04:37:54 45° SE
APEX 4.4 04:34:06 10° N 04:35:49 23° NE 04:35:49 23° NE
Lacrosse 5 rocket 2.9 04:33:39 10° NNW 04:37:05 26° NE 04:38:15 22° ENE
Cosmos 1295 Rocket 4.4 04:39:20 31° SSW 04:42:30 82° W 04:48:37 10° N
Cosmos 2341 Rocket 3.9 04:43:00 41° SSE 04:45:16 74° E 04:51:28 10° N
Okean 3 Rocket 3.4 04:45:35 67° ESE 04:45:51 69° E 04:50:13 10° NNE
Cosmos 1606 3.3 04:45:02 10° N 04:48:26 45° ENE 04:48:26 45° ENE
Cosmos 2237 Rocket 4.4 04:44:39 10° WSW 04:49:13 24° NW 04:53:49 10° N
RESURS DK-1 4.3 04:46:38 10° N 04:49:38 19° NE 04:50:10 19° ENE
Cosmos 1452 Rocket 3.9 04:45:37 10° N 04:50:43 48° ENE 04:51:41 43° E
Cosmos 1340 3.5 04:56:54 41° NE 04:56:54 41° NE 04:59:37 10° NNE
ERS-1 Rocket 4.0 04:56:29 29° SW 04:58:12 38° W 05:02:54 10° NNW
Cosmos 1943 Rocket 2.6 04:53:06 10° NNW 04:58:38 52° ENE 04:59:53 43° ESE
Cosmos 1408 Rocket 4.2 04:59:14 44° ENE 04:59:14 44° ENE 05:02:58 10° NNE
Cosmos 1825 3.2 05:00:46 38° W 05:01:13 40° WNW 05:04:48 10° N
Lacrosse 5 4.2 05:08:05 11° ENE 05:08:05 11° ENE 05:08:26 10° ENE
Meteor 2-3 Rocket 3.8 05:04:39 54° SE 05:05:21 58° E 05:10:58 10° NNE
Cosmos 371 Rocket 3.1 05:02:40 10° NNW 05:07:32 84° WSW 05:07:51 77° S
IRIDIUM 114 4.5 05:07:21 53° E 05:07:38 54° E 05:12:43 10° NNE
Spot 4 4.3 05:13:53 46° ENE 05:14:03 46° ENE 05:18:36 10° N
COSMOS 2455 2.8 05:09:11 10° NNW 05:15:15 82° ENE 05:16:26 60° SE
IRIDIUM 103 4.3 05:16:29 65° ESE 05:16:46 67° E 05:21:57 10° N
Meteor 2-12 Rocket 4.3 05:17:07 57° S 05:18:28 85° E 05:24:39 10° N
BREEZE-M DEB (TANK) 3.5 05:16:05 10° NW 05:18:38 29° N 05:18:38 29° N
Cosmos 494 Rocket 4.4 05:20:25 48° E 05:20:25 48° E 05:24:52 10° NNE
Cosmos 2151 4.3 05:20:18 29° WSW 05:21:12 32° WNW 05:25:03 10° NNW
SPOT 5 4.5 05:21:08 22° WSW 05:22:15 24° W 05:26:04 10° NW
Cosmos 1346 Rocket 3.7 05:24:09 44° NNE 05:24:09 44° NNE 05:26:57 10° NNE
Cosmos 1943 3.3 05:25:12 58° ESE 05:25:12 58° ESE 05:30:41 10° NNE
ATLAS 2AS CENTAUR R/B 3.9 05:21:27 10° NW 05:27:24 28° WSW 05:29:20 24° SW
USA 215 3.2 05:21:26 10° NE 05:28:01 86° NW 05:33:36 15° SW
Meteor 1-26 Rocket 4.2 05:22:58 10° N 05:28:55 76° E 05:29:37 67° SE
Cosmos 1607 4.3 05:32:17 45° E 05:32:17 45° E 05:37:46 10° NE
Cosmos 304 Rocket 3.7 05:28:23 10° NNW 05:33:03 79° NNE 05:33:03 79° NNE
Cosmos 1782 4.0 05:30:21 10° N 05:33:08 37° NNE 05:33:08 37° NNE
IRIDIUM 106 4.2 05:34:46 79° SW 05:35:03 83° W 05:40:18 10° N
Cosmos 864 Rocket 4.5 05:34:44 56° SSW 05:36:09 79° W 05:42:30 10° N
Terra 3.4 05:35:48 24° WSW 05:36:26 24° W 05:40:18 10° NW
ALOS 2 3.6 05:37:28 37° ENE 05:37:28 37° ENE 05:41:06 10° N
Nimbus 7 Rocket 4.5 05:33:09 10° NNE 05:38:56 57° ESE 05:39:06 57° ESE
CZ-4C R/B 3.1 05:31:38 10° NNW 05:38:59 68° NE 05:42:00 42° ESE
SL-16 R/B 4.1 05:35:06 10° WSW 05:39:46 26° NW 05:44:28 10° N
Cosmos 1933 4.3 05:37:25 10° NNW 05:40:35 44° WNW 05:40:35 44° WNW
Cosmos 1656 Rocket 4.4 05:36:27 10° N 05:41:33 40° ENE 05:42:19 38° E
MOS 1-B Rocket 4.1 05:37:03 10° NNE 05:43:59 82° WNW 05:45:23 57° SSW
Cosmos 1328 Rocket 4.4 05:43:45 10° NNW 05:47:22 42° WNW 05:47:22 42° WNW
Cosmos 2366 rocket 4.3 05:48:26 45° SW 05:50:07 59° W 05:56:23 10° N
Cosmos 1515 Rocket 4.0 05:46:23 10° NNW 05:50:02 59° NNW 05:50:02 59° NNW
Cosmos 44 Rocket 3.9 05:51:42 46° WNW 05:52:17 49° NW 05:56:54 10° NNE
BREEZE-M DEB (TANK) 4.2 05:49:16 10° W 05:52:22 42° N 06:01:02 10° ENE
Cosmos 1821 Rocket 3.9 05:55:30 62° ESE 05:55:51 63° E 06:01:51 10° NNE
GP-B 3.7 05:53:26 10° N 05:57:17 52° NW 05:57:17 52° NW
USA 267 4.0 05:54:09 21° E 05:58:18 48° NNE 06:04:32 10° NW
Cosmos 1331 Rocket 4.0 05:55:45 10° NNW 06:00:59 74° ENE 06:00:59 74° ENE
Thor Agena Rocket 4.1 05:57:21 10° N 06:02:13 48° WNW 06:02:49 46° W
ISS -0.8 06:00:37 10° WNW 06:02:55 17° NNW 06:05:13 10° NNE
Cosmos 1812 4.5 06:06:53 10° N 06:09:08 28° NE 06:09:08 28° NE
Cosmos 2369 Rocket 2.5 06:09:40 10° NNW 06:14:52 53° W 06:14:52 53° W
Lacrosse 5 rocket 3.5 06:12:39 10° WNW 06:13:52 18° WNW 06:13:52 18° WNW
Cosmos 1110 Rocket 4.4 06:21:11 10° NNW 06:25:52 55° W 06:25:52 55° W
RESURS DK-1 4.2 06:23:57 10° NW 06:26:03 25° WNW 06:26:03 25° WNW
Cosmos 1934 Rocket 3.9 06:29:28 68° ESE 06:29:49 70° E 06:36:04 10° NNE
Cosmos 1000 Rocket 4.4 06:32:39 10° NNW 06:38:58 71° W 06:39:26 68° SW
Cosmos 1943 Rocket 3.9 06:37:48 10° NW 06:41:24 21° W 06:41:24 21° W
Cosmos 1302 Rocket 4.1 06:41:13 10° NNW 06:45:52 71° NW 06:45:52 71° NW
Lacrosse 5 2.2 06:47:13 62° NW 06:47:13 62° NW 06:52:14 10° NE
Cosmos 1666 Rocket 4.3 06:52:23 50° N 06:52:23 50° N 06:55:38 10° N
Helios 1B rocket 3.7 06:55:36 10° NNE 06:58:16 36° NE 06:58:16 36° NE
Iridium 4 Rocket 4.0 07:03:21 57° E 07:03:30 57° E 07:08:48 10° N
Helios 1A 4.3 07:05:18 33° NW 07:05:18 33° NW 07:07:52 10° NNW
SL-16 R/B 4.2 07:12:18 16° ESE 07:16:01 28° ENE 07:21:11 10° N
SeaSat 1 4.4 07:21:09 10° ENE 07:24:07 18° E 07:24:07 18° E
Cosmos 1238 Rocket 3.5 07:25:39 76° NW 07:25:39 76° NW 07:30:08 10° N
Meteor 2-20 Rocket 4.5 07:20:28 10° NNW 07:26:33 63° W 07:26:54 62° WSW
CZ-4C R/B 4.0 07:20:53 10° NW 07:27:08 30° WSW 07:27:08 30° WSW
Cosmos 2082 Rocket 4.3 07:28:05 14° ESE 07:29:00 14° E 07:31:57 10° ENE
Cosmos 1833 Rocket 4.0 07:31:40 26° ESE 07:31:59 27° ESE 07:36:34 10° NE
CZ-2D R/B 3.3 07:29:04 10° NE 07:33:48 31° E 07:34:24 30° ESE
Cosmos 407 Rocket 4.2 07:36:02 41° ESE 07:36:06 42° ESE 07:41:07 10° NNE
Meteor 1-25 Rocket 4.0 07:36:53 81° SW 07:37:07 84° W 07:42:43 10° N
SL-24 DEB 4.5 07:32:48 10° N 07:37:14 66° ENE 07:37:14 66° ENE
COSMOS 2406 3.7 07:37:53 46° ESE 07:38:12 47° ESE 07:43:42 10° NE
ISS -0.3 07:39:21 10° NNW 07:40:46 12° N 07:42:11 10° NNE
USA 267 3.3 07:41:27 53° SW 07:41:27 53° SW 07:47:37 10° NW
Cosmos 1470 Rocket 4.3 07:45:26 47° NW 07:45:26 47° NW 07:49:09 10° N
Cosmos 2100 Rocket 4.0 07:44:01 58° SSE 07:45:09 70° E 07:51:22 10° NNE
Meteor 1-20 Rocket 4.2 07:46:50 66° W 07:47:10 67° W 07:52:49 10° N
Okean 1-7 3.7 07:42:56 10° N 07:47:06 50° ENE 07:47:06 50° ENE
Cosmos 1459 Rocket 3.9 07:50:53 59° SSE 07:51:58 72° E 07:58:06 10° N
BREEZE-M DEB (TANK) 4.3 07:59:12 22° NNW 08:00:31 35° NNE 08:06:14 10° E
Meteor 1-18 Rocket 4.1 07:56:02 10° N 08:01:52 86° W 08:02:40 68° S
Cosmos 1802 Rocket 4.1 08:02:20 52° SSE 08:03:56 74° E 08:10:22 10° N
UNK 4.2 08:06:27 49° ESE 08:07:13 55° ENE 08:11:44 10° N
ADEOS II 3.7 08:06:09 10° NE 08:10:29 26° E 08:12:21 21° SE
NPP 3.9 08:08:26 10° NNE 08:13:46 61° E 08:14:50 51° SSE
Meteor 1-19 Rocket 4.0 08:10:11 10° NNW 08:15:46 74° W 08:16:28 65° SSW
Resurs 1-4 Rocket 2.1 08:10:27 10° NNE 08:15:47 77° ESE 08:16:39 62° SSE
Cosmos 2242 Rocket 4.4 08:15:05 10° NNW 08:18:44 40° WNW 08:18:44 40° WNW
SL-8 R/B 4.4 08:18:21 36° WNW 08:19:49 50° NNW 08:24:31 10° NE
Spot 1 4.4 08:21:31 60° W 08:21:31 60° W 08:26:06 10° NNW
Cosmos 1725 Rocket 4.1 08:19:52 44° SSE 08:21:53 69° E 08:28:05 10° NNE
Okean 3 4.1 08:19:59 10° N 08:24:04 48° E 08:24:46 43° ESE
Cosmos 1536 4.0 08:25:47 33° ESE 08:26:20 34° E 08:30:01 10° NNE
ATLAS 5 CENTAUR R/B 4.4 08:24:01 10° NNW 08:28:52 28° NE 08:34:18 10° ESE
SL-08 R/B 4.4 08:26:58 46° S 08:28:59 81° E 08:35:11 10° N
Lacrosse 5 4.3 08:27:36 10° WNW 08:31:03 18° NNW 08:34:31 10° NNE
Cosmos 1869 Rocket 3.7 08:33:22 57° WNW 08:33:22 57° WNW 08:37:34 10° N
Cosmos 1437 Rocket 2.8 08:31:05 10° NNW 08:34:49 73° NW 08:34:49 73° NW
Cosmos 1980 Rocket 3.8 08:31:21 10° N 08:36:27 33° ENE 08:41:31 10° ESE
Cosmos 2369 4.4 08:30:52 10° NNW 08:36:31 54° ENE 08:42:06 10° SE
MOZ.5/SAFIR/RUBIN 5/SL-8 4.1 08:39:10 47° W 08:39:10 47° W 08:43:43 10° NNW
Tsikada Rocket 4.2 08:34:11 10° N 08:40:37 73° E 08:44:16 27° SSE
Cosmos 921 Rocket 4.4 08:36:55 10° N 08:41:00 37° ENE 08:44:02 16° SE
IRAS Rocket 4.5 08:43:14 44° WSW 08:43:48 46° W 08:49:05 10° NNW
Cosmos 2061 Rocket 4.1 08:41:50 44° SW 08:43:51 66° W 08:50:08 10° N
Meteor 1-5 Rocket 4.2 08:44:01 48° SSW 08:45:38 74° W 08:51:29 10° N
BREEZE-M DEB (TANK) 4.3 08:41:45 10° WNW 08:47:00 37° N 08:49:49 10° ENE
Cosmos 405 Rocket 4.4 08:48:27 21° WNW 08:48:27 21° WNW 08:50:58 10° NNW
Cosmos 2221 Rocket 3.6 08:43:39 10° N 08:48:05 79° E 08:49:11 50° SSE
Cosmos 1190 Rocket 4.3 08:47:43 43° WSW 08:48:54 52° WNW 08:54:02 10° N
Cosmos 1954 Rocket 3.9 08:49:17 49° SSW 08:50:45 87° WNW 08:56:05 10° NNE
Cosmos 1500 4.1 08:52:52 35° WNW 08:52:52 35° WNW 08:56:04 10° N
Cosmos 2016 Rocket 4.2 08:52:14 39° SW 08:54:10 54° W 09:00:15 10° N
Meteor 2-4 Rocket 3.9 08:49:07 10° NNW 08:54:55 57° W 08:56:43 41° SSW
Meteor 1-11 Rocket 3.6 08:54:13 42° S 08:56:12 87° WNW 09:01:45 10° N
Cosmos 2278 4.4 08:51:14 10° NNW 08:56:50 53° ENE 09:02:24 10° SE
SL-16 R/B 2.8 08:57:24 38° SW 08:59:17 49° W 09:05:21 10° NNW
SeaSat 1 2.7 08:57:27 10° NNE 09:02:18 57° WNW 09:03:54 38° WSW
Cosmos 1697 Rocket 2.6 08:59:00 10° NNW 09:04:39 82° WSW 09:08:43 19° SSE
COBE Rocket 4.1 09:01:51 22° SSE 09:05:05 73° ENE 09:10:00 10° N
Cosmos 1900 4.3 09:05:45 44° SW 09:07:17 75° WNW 09:12:16 10° NNE
CZ-4B R/B 3.6 09:02:22 10° N 09:07:19 60° WNW 09:08:54 40° SW
Cosmos 1666 2.7 09:07:35 55° WSW 09:07:53 57° W 09:11:36 10° N
IRS-1D 3.4 09:04:37 10° N 09:09:33 73° WNW 09:11:23 39° SSW
Cosmos 2082 Rocket 2.2 09:09:56 36° SW 09:12:20 75° WNW 09:18:05 10° NNE
CZ-2D R/B 3.1 09:09:03 10° N 09:13:48 34° WNW 09:15:43 26° WSW
Cosmos 1140 Rocket 4.5 09:12:15 27° W 09:13:59 34° WNW 09:18:44 10° N
Cosmos 1833 Rocket 3.4 09:13:22 29° WSW 09:15:38 42° WNW 09:20:58 10° N
Abrixas rocket 3.9 09:13:42 10° NW 09:16:18 29° NNE 09:18:53 10° E
Cosmos 1674 Rocket 3.7 09:13:28 10° N 09:17:49 72° E 09:20:31 22° SSE
Aureole 1 Rocket 4.2 09:16:26 29° WSW 09:18:03 38° WNW 09:23:28 10° N
ISS -1.2 09:15:41 10° NNW 09:18:28 23° NNE 09:21:15 10° E
CBERS-1 4.2 09:17:16 10° N 09:22:18 57° WNW 09:24:31 32° SW
Cosmos 1656 4.4 09:17:57 10° NW 09:22:36 30° WSW 09:23:19 29° WSW
Meteor 1-23 Rocket 4.3 09:18:32 10° N 09:24:19 88° E 09:29:31 13° S
Cosmos 1743 3.0 09:22:56 29° SSE 09:24:41 61° E 09:28:29 10° NNE
Cosmos 192 4.2 09:21:45 10° NNW 09:26:39 72° WSW 09:30:21 17° S
Cosmos 1850 Rocket 4.0 09:27:55 26° SSW 09:30:58 84° ESE 09:36:20 10° NNE
Cosmos 2360 4.2 09:26:51 10° NNW 09:32:32 65° WSW 09:38:11 10° S
NOSS 3-2 (A) 4.0 09:31:00 19° S 09:34:47 45° ESE 09:40:39 10° NE
Cosmos 1733 Rocket 3.8 09:35:03 29° WSW 09:36:24 37° WNW 09:40:25 10° N
Cosmos 1908 Rocket 3.6 09:34:37 22° S 09:37:28 80° E 09:41:57 10° N
Cosmos 1242 Rocket 2.7 09:35:48 10° N 09:39:15 66° ENE 09:42:14 13° SSE
Cosmos 2322 Rocket 4.5 09:35:30 10° N 09:40:15 27° NE 09:44:59 10° ESE
SL-08 R/B 3.2 09:37:11 15° S 09:41:10 74° WSW 09:46:01 10° NNW
ARIANE 5 R/B 2.5 09:36:12 10° NNE 09:41:19 82° WNW 09:44:50 21° SSW
Cosmos 2233 Rocket 4.5 09:38:05 24° SW 09:41:24 44° WNW 09:47:21 10° N
Cosmos 1066 Rocket 4.3 09:38:50 10° NNW 09:44:37 62° W 09:49:39 14° S
IRS-1C 4.3 09:40:42 10° N 09:45:56 57° WNW 09:49:18 22° SW
Cosmos 1741 Rocket 4.0 09:45:45 23° SSW 09:49:02 71° WNW 09:54:16 10° NNE
Cosmos 1818 4.0 09:44:35 10° NNW 09:50:02 68° NE 09:55:26 10° SE
ADEOS II 2.8 09:45:25 10° N 09:50:15 38° WNW 09:53:17 20° SW
Cosmos 1378 3.0 09:47:56 10° NNW 09:51:41 72° W 09:54:38 16° S
Cosmos 1513 Rocket 4.5 09:48:08 13° S 09:53:47 90° E 10:00:05 10° N
Spot 4 Rocket 4.0 09:48:53 10° NNE 09:54:04 88° W 09:58:26 15° SSW
Resurs 1-4 Rocket 4.1 09:52:09 10° NNW 09:54:55 14° WNW 09:57:41 10° W
CSL-04 DEB 4.5 09:51:33 10° SSE 09:55:42 83° ENE 09:59:47 10° NNW
OE (NEXTSAT) 4.3 10:06:39 20° WSW 10:08:57 86° NNW 10:12:25 10° ENE
Cosmos 1975 Rocket 3.5 10:04:55 10° N 10:09:21 67° E 10:13:46 10° SSE
SL-27 R/B 2.4 10:08:38 16° SSW 10:11:21 85° WNW 10:14:50 10° NNE
Cosmos 1975 2.7 10:08:56 13° SSW 10:12:25 72° W 10:16:25 10° N
H-2A R/B 2.0 10:08:43 10° SSE 10:13:08 86° WSW 10:17:28 10° NNW
ATLAS 5 CENTAUR R/B 2.5 10:08:03 10° NW 10:13:55 64° WSW 10:20:38 10° SSE
Nadezhda 4 Rocket 4.3 10:07:36 10° N 10:13:58 76° E 10:20:17 10° SSE
USA 238 DEB 3.7 10:08:11 14° SSW 10:14:01 86° ESE 10:20:55 10° NE
CZ-4C R/B 2.7 10:10:50 10° SSE 10:14:04 88° WSW 10:17:15 10° NNW
USA 238 3.7 10:08:16 14° SSW 10:14:06 86° ESE 10:20:59 10° NE
CZ-2C R/B 2.8 10:11:18 10° N 10:15:22 77° WNW 10:19:17 11° SSW
Cosmos 1980 Rocket 2.8 10:15:17 10° NW 10:20:26 36° WSW 10:25:32 10° S
CZ-3B R/B 4.4 10:12:36 13° SW 10:20:27 24° SSW 10:24:53 10° SE
Gbstr 26 Del rocket 3.3 10:16:55 10° WNW 10:21:23 62° SW 10:26:52 10° SE
Cosmos 1842 3.2 10:18:01 10° N 10:21:59 82° W 10:25:55 10° S
Okean 2 Rocket 3.9 10:18:48 10° SSE 10:23:02 50° E 10:27:17 10° NNE
CENTAUR R/B 2.9 10:17:35 10° SSW 10:23:09 57° ESE 10:29:41 10° NE
ERS-2 2.1 10:21:35 10° S 10:25:10 60° WSW 10:28:47 10° NNW
IDEFIX/ARIANE 42P 2.8 10:20:19 10° N 10:25:22 54° WNW 10:30:23 10° SSW
H-2A R/B (2) 3.4 10:32:32 10° SSW 10:33:30 11° S 10:34:22 10° SSE
ERBS 2.2 10:31:59 12° SW 10:35:02 88° NNW 10:38:20 10° NE
Cosmos 1867 3.7 10:30:41 10° SW 10:36:02 69° WNW 10:41:30 10° NNE
Cosmos 2208 Rocket 4.0 10:30:49 10° NNW 10:36:14 82° WSW 10:41:31 10° SSE
CZ-2C R/B 2.7 10:34:40 10° NNE 10:39:25 67° ESE 10:44:00 10° S
Okean 2 3.9 10:36:56 10° NNW 10:40:45 38° W 10:44:31 10° SSW
MSX 4.0 10:37:55 10° N 10:43:32 58° WNW 10:49:08 10° SSW
SL-16 R/B 2.2 10:37:54 10° NNW 10:43:36 82° WSW 10:49:16 10° SSE
Cosmos 1814 Rocket 3.9 10:38:46 10° NNW 10:43:54 75° WSW 10:49:02 10° S
Cosmos 1271 Rocket 3.5 10:40:49 10° NNW 10:44:10 31° W 10:47:29 10° SSW
Cosmos 2151 Rocket 4.0 10:43:44 10° S 10:48:13 68° E 10:52:41 10° NNE
Cosmos 1300 Rocket 3.6 10:46:19 10° S 10:50:43 85° W 10:55:07 10° N
